Weather History for Deer Park, WA

Change the Weather History Date:

Monday, April 16, 2012

  Actual Average Record
Temperature  
Mean Temperature 41 °F 45 °F  
Max Temperature 51 °F 58 °F 69 °F (1999)
Min Temperature 31 °F 32 °F 22 °F (2013)
Degree Days  
Heating Degree Days 24 20  
Month to date heating degree days 329 344  
Since 1 July heating degree days 6291 6551  
Cooling Degree Days 0 0  
Month to date cooling degree days 0 0  
Year to date cooling degree days 0 0  
Moisture  
Dew Point 43 °F    
Average Humidity 85    
Maximum Humidity 93    
Minimum Humidity 76    
Precipitation  
Precipitation 0.26 in 0.05 in 0.26 in (2012)
Month to date precipitation 0.82 0.98  
Year to date precipitation 9.51 7.30  
Sea Level Pressure  
Sea Level Pressure 30.00 in    
Wind  
Wind Speed 5 mph (South)    
Max Wind Speed 14 mph    
Max Gust Speed 17 mph    
Visibility 8 miles    
Events Rain    
T = Trace of Precipitation, MM = Missing Value Source: NWS Daily Summary

Daily Weather History Graph

Daily Weather History Graph

Search for Another Location

Airport:

Trip Planner

Search our weather history database for the weather conditions in past years. The results will help you decide how hot, cold, wet, or windy it might be!

Date:

Astronomy

Apr. 16, 2012 Rise Set
Actual Time 5:57 AM PDT 7:42 PM PDT
Civil Twilight 5:24 AM PDT 8:15 PM PDT
Nautical Twilight 4:44 AM PDT 8:55 PM PDT
Astronomical Twilight 4:00 AM PDT 9:39 PM PDT
Moon 3:46 AM PDT (4/16) 3:25 PM PDT (4/16)
Length of Visible Light 14h 50m
Length of Day
13h 45m
Waning Crescent, 18% of the Moon is Illuminated
Apr 16
Waning Crescent
Apr 21
New
Apr 29
First Quarter
May 5
Full
May 12
Last Quarter

Hourly Weather History & Observations

Time (PDT) Temp. Windchill Dew Point Humidity Pressure Visibility Wind Dir Wind Speed Gust Speed Precip Events Conditions
12:53 AM 39.0 °F 36.8 °F 35.1 °F 86% 30.05 in 10.0 mi NE 3.5 mph - N/A   Overcast
1:53 AM 37.0 °F - 32.0 °F 82% 30.06 in 10.0 mi Calm Calm - N/A   Mostly Cloudy
3:53 AM 32.0 °F - 28.9 °F 88% 30.04 in 10.0 mi Calm Calm - N/A   Clear
4:53 AM 36.0 °F - 33.1 °F 89% 30.03 in 10.0 mi Calm Calm - N/A   Overcast
5:53 AM 39.0 °F 35.7 °F 34.0 °F 82% 30.01 in 10.0 mi NNE 4.6 mph - N/A   Overcast
6:53 AM 39.9 °F - 35.1 °F 83% 30.02 in 10.0 mi Calm Calm - N/A   Overcast
7:53 AM 42.1 °F - 36.0 °F 79% 30.03 in 10.0 mi Calm Calm - N/A   Overcast
8:53 AM 44.1 °F - 37.0 °F 76% 30.05 in 10.0 mi North - - N/A   Overcast
9:53 AM 44.1 °F 40.8 °F 39.0 °F 82% 30.05 in 10.0 mi SE 5.8 mph - 0.02 in Rain Light Rain
10:02 AM 44.6 °F 41.4 °F 39.2 °F 81% 30.01 in 10.0 mi SE 5.8 mph - 0.00 in Rain Light Rain
10:53 AM 44.1 °F 42.5 °F 39.9 °F 85% 30.05 in 5.0 mi SSE 3.5 mph - 0.03 in Rain Light Rain
11:53 AM 46.0 °F 43.9 °F 43.0 °F 89% 30.03 in 6.0 mi SE 4.6 mph - 0.06 in Rain Light Rain
12:02 PM 46.4 °F 41.9 °F 42.8 °F 87% 29.99 in 6.0 mi SE 9.2 mph - 0.00 in Rain Light Rain
12:18 PM 46.4 °F 43.5 °F 42.8 °F 87% 29.99 in 7.0 mi SE 5.8 mph - 0.01 in Rain Light Rain
12:35 PM 46.4 °F 41.9 °F 42.8 °F 87% 29.98 in 6.0 mi SSE 9.2 mph - 0.02 in Rain Light Rain
12:50 PM 46.4 °F 41.1 °F 42.8 °F 87% 29.98 in 6.0 mi SSE 11.5 mph - 0.03 in Rain Light Rain
12:53 PM 46.0 °F 40.6 °F 43.0 °F 89% 30.01 in 6.0 mi SSE 11.5 mph - 0.04 in Rain Light Rain
1:29 PM 46.4 °F 42.9 °F 42.8 °F 87% 29.97 in 5.0 mi South 6.9 mph - 0.02 in Rain Light Rain
1:53 PM 46.0 °F 42.5 °F 43.0 °F 89% 30.00 in 5.0 mi South 6.9 mph - 0.03 in Rain Light Rain
2:23 PM 46.4 °F 42.9 °F 44.6 °F 93% 29.96 in 1.8 mi SSE 6.9 mph - 0.01 in Rain Light Rain
2:34 PM 46.4 °F 42.9 °F 44.6 °F 93% 29.96 in 1.5 mi SSE 6.9 mph - 0.02 in Rain Light Rain
2:53 PM 46.9 °F - 45.0 °F 93% 30.00 in 1.8 mi South 5.8 mph - 0.03 in Rain Rain
3:01 PM 46.4 °F 43.5 °F 44.6 °F 93% 29.96 in 2.0 mi SSE 5.8 mph - 0.01 in Rain Light Rain
3:18 PM 46.4 °F 43.5 °F 44.6 °F 93% 29.96 in 3.0 mi SSE 5.8 mph - 0.02 in Rain Light Rain
3:25 PM 46.4 °F - 46.4 °F 100% 29.96 in 1.8 mi Calm Calm - 0.03 in Rain Rain
3:33 PM 46.4 °F 43.5 °F 46.4 °F 100% 29.96 in 3.0 mi SSE 5.8 mph - 0.04 in Rain Light Rain
3:46 PM 46.4 °F 45.2 °F 46.4 °F 100% 29.96 in 4.0 mi SSE 3.5 mph - 0.05 in Rain Light Rain
3:53 PM 48.0 °F - 46.0 °F 93% 30.00 in 7.0 mi South 3.5 mph - 0.05 in Rain Light Rain
4:06 PM 48.2 °F - 46.4 °F 93% 29.96 in 8.0 mi South 3.5 mph - 0.00 in   Overcast
4:21 PM 48.2 °F - 46.4 °F 93% 29.96 in 8.0 mi SW 4.6 mph - 0.00 in Rain Light Rain
4:30 PM 48.2 °F - 46.4 °F 93% 29.97 in 10.0 mi SW 3.5 mph - 0.00 in   Overcast
4:45 PM 50.0 °F - 46.4 °F 87% 29.97 in 10.0 mi SW 4.6 mph - 0.00 in   Overcast
4:53 PM 50.0 °F - 48.0 °F 93% 30.00 in 10.0 mi WSW 4.6 mph - 0.00 in   Mostly Cloudy
5:02 PM 50.0 °F - 46.4 °F 87% 29.97 in 10.0 mi SW 5.8 mph - N/A   Scattered Clouds
5:53 PM 51.1 °F - 46.0 °F 83% 30.00 in 10.0 mi SW 6.9 mph - N/A   Mostly Cloudy
6:14 PM 51.8 °F - 46.4 °F 82% 29.97 in 10.0 mi SSW 9.2 mph - N/A   Mostly Cloudy
6:53 PM 50.0 °F - 46.0 °F 86% 29.99 in 10.0 mi SW 8.1 mph - N/A   Overcast
7:29 PM 50.0 °F - 46.4 °F 87% 29.97 in 10.0 mi SW 6.9 mph - N/A   Mostly Cloudy
7:53 PM 48.9 °F - 45.0 °F 86% 30.00 in 10.0 mi SSW 8.1 mph - N/A   Scattered Clouds
8:34 PM 48.2 °F - 46.4 °F 93% 29.98 in 10.0 mi SSW 6.9 mph - N/A   Mostly Cloudy
8:53 PM 48.9 °F - 46.0 °F 90% 30.01 in 10.0 mi South 5.8 mph - N/A   Overcast
9:53 PM 48.0 °F - 44.1 °F 86% 30.01 in 10.0 mi South 9.2 mph - N/A   Clear
10:53 PM 46.0 °F 41.9 °F 43.0 °F 89% 30.03 in 10.0 mi South 8.1 mph - N/A   Clear
11:22 PM 46.4 °F 43.5 °F 42.8 °F 87% 30.01 in 10.0 mi SSW 5.8 mph - N/A   Mostly Cloudy
11:34 PM 46.4 °F 42.4 °F 42.8 °F 87% 30.01 in 10.0 mi South 8.1 mph - N/A   Mostly Cloudy
11:53 PM 46.0 °F 43.1 °F 42.1 °F 86% 30.04 in 10.0 mi South 5.8 mph - N/A   Mostly Cloudy